Time,TemperatureF,DewpointF,PressureIn,WindDirection,WindDirectionDegrees,WindSpeedMPH,WindSpeedGustMPH,Humidity,HourlyPrecipIn,Conditions,Clouds,dailyrainin,SoftwareType,DateUTC
2013-03-24 00:22:00,57.0,52.0,30.00,East,100,5.0,-999.0,84,0.00,,,-99.99,,2013-03-24 07:22:00,
2013-03-24 00:32:00,57.0,52.0,30.00,East,100,5.0,-999.0,84,0.00,,,-99.99,,2013-03-24 07:32:00,
2013-03-24 00:42:00,57.0,52.0,30.00,East,100,5.0,-999.0,84,0.00,,,-99.99,,2013-03-24 07:42:00,
2013-03-24 01:22:00,56.0,51.0,29.98,ENE,70,3.0,-999.0,84,0.00,,,-99.99,,2013-03-24 08:22:00,
2013-03-24 01:32:00,56.0,51.0,29.98,ENE,70,3.0,-999.0,84,0.00,,,-99.99,,2013-03-24 08:32:00,
2013-03-24 01:42:00,56.0,51.0,29.98,ENE,70,3.0,-999.0,84,0.00,,,-99.99,,2013-03-24 08:42:00,
2013-03-24 02:22:00,56.0,52.0,29.99,East,80,3.0,-999.0,85,0.00,,,-99.99,,2013-03-24 09:22:00,
2013-03-24 02:33:00,56.0,52.0,29.99,East,80,3.0,-999.0,85,0.00,,,-99.99,,2013-03-24 09:33:00,
2013-03-24 02:42:00,56.0,52.0,29.99,East,80,3.0,-999.0,85,0.00,,,-99.99,,2013-03-24 09:42:00,
2013-03-24 03:22:00,56.0,52.0,29.97,East,90,4.0,-999.0,85,0.00,,,-99.99,,2013-03-24 10:22:00,
2013-03-24 03:32:00,56.0,52.0,29.97,East,90,4.0,-999.0,85,0.00,,,-99.99,,2013-03-24 10:32:00,
2013-03-24 03:42:00,56.0,52.0,29.97,East,90,4.0,-999.0,85,0.00,,,-99.99,,2013-03-24 10:42:00,
2013-03-24 04:22:00,55.0,51.0,29.97,SE,140,2.0,-999.0,86,0.00,,,-99.99,,2013-03-24 11:22:00,
2013-03-24 04:32:00,55.0,51.0,29.97,SE,140,2.0,-999.0,86,0.00,,,-99.99,,2013-03-24 11:32:00,
2013-03-24 04:42:00,55.0,51.0,29.97,SE,140,2.0,-999.0,86,0.00,,,-99.99,,2013-03-24 11:42:00,
2013-03-24 05:22:00,55.0,51.0,29.96,North,0,0.0,-999.0,87,0.00,,,-99.99,,2013-03-24 12:22:00,
2013-03-24 05:32:00,55.0,51.0,29.96,North,0,0.0,-999.0,87,0.00,,,-99.99,,2013-03-24 12:32:00,
2013-03-24 05:42:00,55.0,51.0,29.96,North,0,0.0,-999.0,87,0.00,,,-99.99,,2013-03-24 12:42:00,
2013-03-24 06:22:00,55.0,51.0,29.98,North,0,0.0,-999.0,87,0.00,,,-99.99,,2013-03-24 13:22:00,
2013-03-24 06:32:00,55.0,51.0,29.98,North,0,0.0,-999.0,87,0.00,,,-99.99,,2013-03-24 13:32:00,
2013-03-24 06:42:00,55.0,51.0,29.98,North,0,0.0,-999.0,87,0.00,,,-99.99,,2013-03-24 13:42:00,
2013-03-24 07:22:00,55.0,51.0,29.98,NNW,340,7.0,-999.0,87,0.00,,,-99.99,,2013-03-24 14:22:00,
2013-03-24 07:32:00,55.0,51.0,29.98,NNW,340,7.0,-999.0,87,0.00,,,-99.99,,2013-03-24 14:32:00,
2013-03-24 07:42:00,55.0,51.0,29.98,NNW,340,7.0,-999.0,87,0.00,,,-99.99,,2013-03-24 14:42:00,
2013-03-24 08:43:00,54.0,51.0,29.98,North,10,2.0,-999.0,88,0.00,,,-99.99,,2013-03-24 15:43:00,
2013-03-24 08:53:00,54.0,51.0,29.98,North,10,2.0,-999.0,88,0.00,,,-99.99,,2013-03-24 15:53:00,
2013-03-24 09:02:00,54.0,51.0,29.98,North,10,2.0,-999.0,88,0.00,,,-99.99,,2013-03-24 16:02:00,
2013-03-24 09:22:00,54.0,51.0,29.99,NW,320,7.0,-999.0,88,0.00,,,-99.99,,2013-03-24 16:22:00,
2013-03-24 09:33:00,54.0,51.0,29.99,NW,320,7.0,-999.0,88,0.00,,,-99.99,,2013-03-24 16:33:00,
2013-03-24 09:42:00,54.0,51.0,29.99,NW,320,7.0,-999.0,88,0.00,,,-99.99,,2013-03-24 16:42:00,
2013-03-24 10:22:00,55.0,51.0,29.99,WNW,290,8.0,-999.0,87,0.00,,,-99.99,,2013-03-24 17:22:00,
2013-03-24 10:32:00,55.0,51.0,29.99,WNW,290,8.0,-999.0,87,0.00,,,-99.99,,2013-03-24 17:32:00,
2013-03-24 10:42:00,55.0,51.0,29.99,WNW,290,8.0,-999.0,87,0.00,,,-99.99,,2013-03-24 17:42:00,
2013-03-24 11:43:00,57.0,53.0,29.98,WNW,290,8.0,-999.0,87,0.00,,,-99.99,,2013-03-24 18:43:00,
2013-03-24 11:52:00,57.0,53.0,29.98,WNW,290,8.0,-999.0,87,0.00,,,-99.99,,2013-03-24 18:52:00,
2013-03-24 12:02:00,57.0,53.0,29.98,WNW,290,8.0,-999.0,87,0.00,,,-99.99,,2013-03-24 19:02:00,
2013-03-24 12:22:00,57.0,53.0,29.98,WNW,290,8.0,-999.0,85,0.00,,,-99.99,,2013-03-24 19:22:00,
2013-03-24 12:32:00,57.0,53.0,29.98,WNW,290,8.0,-999.0,85,0.00,,,-99.99,,2013-03-24 19:32:00,
2013-03-24 13:22:00,57.0,52.0,29.96,WNW,290,8.0,-999.0,84,0.00,,,-99.99,,2013-03-24 20:22:00,
2013-03-24 13:32:00,57.0,52.0,29.96,WNW,290,8.0,-999.0,84,0.00,,,-99.99,,2013-03-24 20:32:00,
2013-03-24 14:22:00,58.0,53.0,29.93,WNW,290,7.0,-999.0,83,0.00,,,-99.99,,2013-03-24 21:22:00,
2013-03-24 14:33:00,58.0,53.0,29.93,WNW,290,7.0,-999.0,83,0.00,,,-99.99,,2013-03-24 21:33:00,
2013-03-24 15:22:00,59.0,54.0,29.91,WNW,300,8.0,-999.0,83,0.00,,,-99.99,,2013-03-24 22:22:00,
2013-03-24 15:33:00,59.0,54.0,29.91,WNW,300,8.0,-999.0,83,0.00,,,-99.99,,2013-03-24 22:33:00,
2013-03-24 16:22:00,59.0,54.0,29.90,WNW,290,11.0,-999.0,82,0.00,,,-99.99,,2013-03-24 23:22:00,
2013-03-24 16:32:00,59.0,54.0,29.90,WNW,290,11.0,-999.0,82,0.00,,,-99.99,,2013-03-24 23:32:00,
2013-03-24 17:22:00,59.0,54.0,29.89,WNW,290,12.0,-999.0,82,0.00,,,-99.99,,2013-03-25 00:22:00,
2013-03-24 17:32:00,59.0,54.0,29.89,WNW,290,12.0,-999.0,82,0.00,,,-99.99,,2013-03-25 00:32:00,
2013-03-24 18:22:00,60.0,54.0,29.88,WNW,290,9.0,-999.0,82,0.00,,,-99.99,,2013-03-25 01:22:00,
2013-03-24 18:32:00,60.0,54.0,29.88,WNW,290,9.0,-999.0,82,0.00,,,-99.99,,2013-03-25 01:32:00,
2013-03-24 18:42:00,60.0,54.0,29.88,WNW,290,9.0,-999.0,82,0.00,,,-99.99,,2013-03-25 01:42:00,
2013-03-24 19:22:00,59.0,54.0,29.88,WNW,290,11.0,-999.0,84,0.00,,,-99.99,,2013-03-25 02:22:00,
2013-03-24 19:32:00,59.0,54.0,29.88,WNW,290,11.0,-999.0,84,0.00,,,-99.99,,2013-03-25 02:32:00,
2013-03-24 19:42:00,59.0,54.0,29.88,WNW,290,11.0,-999.0,84,0.00,,,-99.99,,2013-03-25 02:42:00,
2013-03-24 20:22:00,59.0,55.0,29.90,West,280,7.0,-999.0,86,0.00,,,-99.99,,2013-03-25 03:22:00,
2013-03-24 20:33:00,59.0,55.0,29.90,West,280,7.0,-999.0,86,0.00,,,-99.99,,2013-03-25 03:33:00,
2013-03-24 20:42:00,59.0,55.0,29.90,West,280,7.0,-999.0,86,0.00,,,-99.99,,2013-03-25 03:42:00,
2013-03-24 21:22:00,59.0,55.0,29.91,North,0,0.0,-999.0,87,0.00,,,-99.99,,2013-03-25 04:22:00,
2013-03-24 21:32:00,59.0,55.0,29.91,North,0,0.0,-999.0,87,0.00,,,-99.99,,2013-03-25 04:32:00,
2013-03-24 21:42:00,59.0,55.0,29.91,North,0,0.0,-999.0,87,0.00,,,-99.99,,2013-03-25 04:42:00,
2013-03-24 23:12:00,58.0,54.0,29.93,ESE,110,1.0,-999.0,88,0.00,,,-99.99,,2013-03-25 06:12:00,
2013-03-24 23:22:00,58.0,54.0,29.93,ESE,110,1.0,-999.0,88,0.00,,,-99.99,,2013-03-25 06:22:00,
2013-03-24 23:32:00,58.0,54.0,29.93,ESE,110,1.0,-999.0,88,0.00,,,-99.99,,2013-03-25 06:32:00,